Wallops Island, VA

3:59 PM EST on December 06, 2019 (GMT -0500)
Wallops Flight Facility

Weather History for KWAL - October, 2019

Change the Weather History Date:

Friday, October 4, 2019

  Actual Average Record
Temperature  
Mean Temperature 68 °F 63 °F  
Max Temperature 80 °F 72 °F 89 °F (1986)
Min Temperature 55 °F 55 °F 35 °F (1974)
Degree Days  
Heating Degree Days 0    
Month to date heating degree days 0  
Since 1 July heating degree days 9  
Cooling Degree Days 3    
Month to date cooling degree days 38  
Year to date cooling degree days 1785  
Growing Degree Days 18 (Base 50)    
Moisture  
Dew Point 58 °F    
Average Humidity 66    
Maximum Humidity 100    
Minimum Humidity 32    
Precipitation  
Precipitation 0.00 in 0.11 in 0.56 in (1998)
Month to date precipitation T 0.41  
Year to date precipitation 34.33 31.78  
Sea Level Pressure  
Sea Level Pressure 30.04 in    
Wind  
Wind Speed 12 mph (NNW)    
Max Wind Speed 20 mph    
Max Gust Speed 29 mph    
Visibility 9 miles    
Events      
T = Trace of Precipitation, MM = Missing Value Source: NWS Daily Summary

Daily Weather History Graph

Daily Weather History Graph

Search for Another Location

Airport or City:

Astronomy

Oct. 04, 2019 Rise Set
Actual Time 6:59 AM EDT 6:40 PM EDT
Civil Twilight 6:33 AM EDT 7:06 PM EDT
Nautical Twilight 6:03 AM EDT 7:37 PM EDT
Astronomical Twilight 5:32 AM EDT 8:07 PM EDT
Moon 1:24 PM EDT (10/4) 11:13 PM EDT (10/4)
Length of Visible Light 12h 33m
Length of Day
11h 40m
Waxing Crescent, 39% of the Moon is Illuminated
Oct 4
Waxing Crescent
Oct 5
First Quarter
Oct 13
Full
Oct 21
Last Quarter
Oct 27
New

Hourly Weather History & Observations

Time (EDT) Temp. Dew Point Humidity Pressure Visibility Wind Dir Wind Speed Gust Speed Precip Events Conditions
12:11 AM 72.0 °F 71.1 °F 97% 29.94 in 8.0 mi South 10.4 mph - N/A   Overcast
12:54 AM 72.0 °F 71.1 °F 97% 29.92 in 8.0 mi South 12.7 mph - N/A   Overcast
1:54 AM 72.0 °F 71.1 °F 97% 29.91 in 8.0 mi SSW 10.4 mph - N/A   Overcast
2:54 AM 72.0 °F 72.0 °F 100% 29.90 in 8.0 mi WSW 6.9 mph - N/A   Overcast
3:33 AM 73.0 °F 71.1 °F 93% 29.89 in 7.0 mi WSW 5.8 mph - N/A   Overcast
3:54 AM 73.0 °F 71.1 °F 93% 29.89 in 7.0 mi West 3.5 mph - N/A   Overcast
4:54 AM 73.0 °F 72.0 °F 96% 29.91 in 7.0 mi NNW 8.1 mph - N/A   Overcast
5:54 AM 73.0 °F 71.1 °F 93% 29.93 in 6.0 mi NNW 5.8 mph - N/A   Overcast
6:25 AM 73.0 °F 71.1 °F 93% 29.95 in 7.0 mi NNW 3.5 mph - N/A   Overcast
6:54 AM 73.0 °F 71.1 °F 93% 29.95 in 7.0 mi NNW 8.1 mph - N/A   Overcast
7:01 AM 73.0 °F 71.1 °F 93% 29.96 in 8.0 mi North 6.9 mph - N/A   Overcast
7:16 AM 73.0 °F 70.0 °F 90% 29.97 in 8.0 mi NNW 8.1 mph - N/A   Overcast
7:54 AM 73.0 °F 66.9 °F 81% 29.98 in 10.0 mi North 17.3 mph 25.3 mph N/A   Overcast
8:50 AM 73.4 °F 62.6 °F 69% 30.02 in 10.0 mi North 13.8 mph - N/A   Mostly Cloudy
8:54 AM 73.0 °F 62.1 °F 68% 30.02 in 10.0 mi North 18.4 mph 27.6 mph N/A   Mostly Cloudy
9:54 AM 73.0 °F 55.9 °F 55% 30.05 in 10.0 mi North 20.7 mph 29.9 mph N/A   Scattered Clouds
10:54 AM 75.0 °F 50.0 °F 41% 30.06 in 10.0 mi North 16.1 mph 23.0 mph N/A   Clear
11:54 AM 75.9 °F 48.9 °F 38% 30.06 in 10.0 mi NNW 13.8 mph 23.0 mph N/A   Clear
12:54 PM 78.1 °F 50.0 °F 37% 30.06 in 10.0 mi NNW 15.0 mph 21.9 mph N/A   Partly Cloudy
1:54 PM 79.0 °F 48.0 °F 34% 30.06 in 10.0 mi NNW 11.5 mph 21.9 mph N/A   Partly Cloudy
2:54 PM 78.1 °F 46.9 °F 33% 30.05 in 10.0 mi North 15.0 mph 21.9 mph N/A   Clear
3:54 PM 78.1 °F 48.0 °F 35% 30.06 in 10.0 mi North 15.0 mph - N/A   Clear
4:54 PM 75.9 °F 46.9 °F 36% 30.08 in 10.0 mi NNW 8.1 mph - N/A   Clear
5:54 PM 73.9 °F 46.9 °F 38% 30.10 in 10.0 mi North 8.1 mph - N/A   Clear
6:54 PM 68.0 °F 48.9 °F 50% 30.13 in 10.0 mi NE 9.2 mph - N/A   Clear
7:54 PM 64.9 °F 48.0 °F 54% 30.17 in 10.0 mi NNE 16.1 mph 24.2 mph N/A   Clear
8:54 PM 63.0 °F 46.9 °F 56% 30.20 in 10.0 mi NNE 12.7 mph 20.7 mph N/A   Clear
9:54 PM 60.1 °F 45.0 °F 57% 30.23 in 10.0 mi NNE 12.7 mph 19.6 mph N/A   Clear
10:54 PM 57.9 °F 45.0 °F 62% 30.25 in 10.0 mi North 11.5 mph - N/A   Clear
11:54 PM 57.0 °F 45.0 °F 64% 30.26 in 10.0 mi North 11.5 mph - N/A   Clear